OOV-CUBE (TUBSAT-30)

Last updated on Sat Jul 05 2025 00:03:06 GMT+0000 (Coordinated Universal Time)

1 60240U 24128F 25185.58936471 .00002093 00000+0 17734-3 0 9991 2 60240 61.9971 355.4921 0053940 60.0610 300.5820 15.00373828 53913
UTC large
Height (km)
Speed (km/s)
/
Latitude / Longitude
Inclination (degrees)
Orbital Period (minutes)
Azimuth
Elevation
Range (km)
Doppler Factor

Next 0 passes for location: London (51.5072 / 0.1276)

Sorry there are no passes over London.